Location: Zagreb
(45.8000°N, 16.0000°E)
Time: 13:21:33
(UTC+01:00)

ISS - Visible Passes

Search period start: 29 January 2015 00:00
Search period end: 08 February 2015 00:00
Orbit: 402 x 410 km, 51.6° (Epoch: 28 January)

Date Brightness Start Highest point End Pass type
(mag) Time Alt. Az. Time Alt. Az. Time Alt. Az.
04 Feb -0.9 18:25:16 10° SSE 18:25:58 11° SE 18:25:58 11° SE visible
05 Feb -1.8 19:07:24 10° SW 19:09:16 28° SSW 19:09:16 28° SSW visible
06 Feb -1.9 18:15:55 10° SSW 18:18:38 25° SE 18:19:45 20° ESE visible
06 Feb -0.3 19:51:43 10° WSW 19:52:27 16° WSW 19:52:27 16° WSW visible
07 Feb -3.4 18:59:38 10° WSW 19:02:49 85° SW 19:02:49 85° SW visible
